Tracking 19419 objects as of 17-Dec-2018
HD Live streaming from Space Station
objects crossing your sky now

PEASSS

Track PEASSS now!
10-day predictions


NORAD ID: 42015
Int'l Code: 2017-008BV
Perigee: 494.0 km
Apogee: 505.2 km
Inclination: 97.4 °
Period: 94.5 minutes
Semi major axis: 6870 km
RCS: Unknown
Launch date: February 15, 2017
Source: Netherlands (NETH)
Launch site: SRIHARIKOTA (SRI)
aabbcc
Your satellite tracking list
Your tracking list is empty




NASA's NSSDC Master Catalog

Two Line Element Set (TLE):
1 42015U 17008BV  18350.81202771 +.00000784 +00000-0 +34865-4 0  9992
2 42015 097.4271 054.2650 0008146 096.7427 263.4738 15.24433835101733
Source of the keplerian elements: AFSPC